GCOM-W1 (SHIZUKU)

Last updated on Fri Sep 11 2026 00:03:31 GMT+0000 (Coordinated Universal Time)

1 38337U 12025A 26253.61618596 .00000281 00000+0 72448-4 0 9993 2 38337 98.2061 192.8894 0001479 87.7033 85.3134 14.57130923761476
UTC large
Height (km)
Speed (km/s)
/
Latitude / Longitude
Inclination (degrees)
Orbital Period (minutes)
Azimuth
Elevation
Range (km)
Doppler Factor

Next 0 passes for location: London (51.5072 / 0.1276)

No passes found over London.
GCOM-W1 (SHIZUKU)